Location: Gwatt
(46.7204°N, 7.6223°E)
Time: 00:54:17
(UTC+00:00)

Envisat - Pass Details

Date: 28 November 2020
Orbit: 764 x 766 km, 98.1° (Epoch: 19 January)

Event Time Altitude Azimuth Distance (km) Brightness Sun altitude
Rises 03:50:48 0° 34° (NNE) 3,244 6.7 -30.1°
Reaches altitude 10° 03:55:06 10° 69° (ENE) 2,309 6.3 -29.3°
Maximum altitude 03:56:33 11° 86° (E) 2,228 6.3 -29.1°
Drops below altitude 10° 03:58:00 10° 102° (ESE) 2,304 6.4 -28.8°
Sets 04:02:15 0° 137° (SE) 3,221 6.8 -28.1°
